Notices

What's New in latest Release from April 7th, 2021:

- Updated Glossary, including Speed of Maximum Gust, and Total Hourly Precipitation

- Updated national and regional climate services offices contacts and prices information

- Addition of station inventory lists for 1981-2010, 1971-2000, and 1961-1990 Normals.

If you haven't already, please take our survey and provide feedback about our website: https://eccc.sondage-survey.ca/f/LanguageSelection.aspx?s=442ca660-fcf1-47c0-95a9-59707d6fd709

Hourly Data Report for April 18, 2018

MIRAMICHI RCS
NEW BRUNSWICK
Current Station Operator: ECCC - MSC

47°00'34.000" N
65°27'54.000" W
33.00 m
8100989
71744
ACQ

Download Data

Hourly Data (April 2018)
Hourly Data Report for April 18, 2018
TIME
LST
Temp Definition
°C
Dew Point Definition
°C
Rel Hum Definition
%
Precip. Amount Definition
mm

Wind Dir Definition
10's deg

Wind Spd Definition
km/h
Visibility Definition
km
Stn Press Definition
kPa
Hmdx Definition


Wind Chill Definition


Weather Definition


00:00 0.5 0.1 97 0.2 25 3   99.12     LegendNANA
01:00 0.4 0.0 98 0.0 21 4   99.08     LegendNANA
02:00 0.3 0.0 98 0.0 21 6   99.07     LegendNANA
03:00 0.3 0.0 98 0.0 23 4   99.05     LegendNANA
04:00 0.3 0.0 98 0.0 25 3   98.97     LegendNANA
05:00 0.2 0.0 98 0.0 17 6   98.99     LegendNANA
06:00 0.6 0.3 98 0.0 14 6   99.00     LegendNANA
07:00 1.7 1.3 98 0.0 25 6   99.02     LegendNANA
08:00 2.2 1.6 96 0.0 23 6   99.06     LegendNANA
09:00 2.3 1.1 92 0.0 23 13   99.06     LegendNANA
10:00 2.8 1.0 88 0.0 22 21   99.06     LegendNANA
11:00 2.9 0.8 87 0.0 23 22   99.06     LegendNANA
12:00 3.0 1.0 86 0.0 22 18   99.04     LegendNANA
13:00 3.4 0.6 82 0.0 23 20   99.03     LegendNANA
14:00 4.3 0.8 78 0.0 24 21   99.02     LegendNANA
15:00 4.8 0.2 72 0.0 24 20   99.05     LegendNANA
16:00 4.7 0.0 72 0.0 25 21   99.10     LegendNANA
17:00 4.5 0.2 74 0.0 24 20   99.18     LegendNANA
18:00 4.3 0.8 78 0.0 24 15   99.24     LegendNANA
19:00 3.8 0.9 81 0.0 24 9   99.30     LegendNANA
20:00 3.5 1.1 84 0.0 24 10   99.35     LegendNANA
21:00 3.9 1.1 82 0.0 24 12   99.39     LegendNANA
22:00 3.3 1.0 85 0.0 25 11   99.40     LegendNANA
23:00 3.0 0.9 86 0.0 26 9   99.42     LegendNANA

Notes on Data Quality.

Legend

  • E = Estimated
  • M = Missing
  • NA = Not Available*
  • [empty] = Indicates an unobserved value
Date modified: